Theta_e
346 357 362 363 363 364 364 363 363 362 363 363 363 362 363 363 364 364 364 364 365 365 363 361 359 358 356 354 353 353 359 362 359 357 357 356 359 360 363 361 361 357 362
351 358 362 363 362 362 361 362 362 362 361 361 361 360 360 363 363 363 363 363 361 361 360 359 358 357 355 354 355 357 358 358 357 357 354 352 357 359 359 362 361 358 361
350 353 357 361 359 359 359 359 359 359 359 361 362 362 360 361 361 361 361 361 361 358 357 357 356 355 353 353 354 359 357 356 357 357 358 349 353 359 359 360 359 360 360
351 349 352 357 356 355 355 355 355 354 356 357 357 356 358 359 359 358 358 357 356 353 350 351 353 351 350 348 349 355 359 358 358 357 352 354 353 358 358 359 361 360 359
347 348 350 355 355 353 352 352 354 354 355 353 351 352 352 351 351 352 353 353 353 353 352 351 352 354 351 349 347 351 358 359 358 356 351 349 350 355 360 361 360 358 358
346 347 352 354 353 351 348 349 350 349 348 348 346 349 349 349 349 349 349 349 349 348 348 351 352 353 353 355 355 353 358 359 356 348 351 348 349 353 360 360 359 359 358
343 346 347 351 349 348 346 346 347 348 345 343 342 344 347 348 348 347 347 343 340 341 345 348 348 350 351 354 356 357 356 355 350 347 345 343 339 350 358 359 360 359 358
344 344 340 347 349 348 347 347 346 345 343 340 339 338 337 336 338 345 343 339 338 336 337 339 343 346 350 351 352 355 355 353 348 345 346 345 345 354 358 357 356 358 358
343 339 336 336 341 347 348 348 346 344 341 338 337 334 332 332 332 333 333 334 335 338 339 338 340 341 344 348 350 350 351 352 345 343 345 343 349 355 357 354 355 351 357
338 337 331 330 332 334 337 348 345 340 336 334 333 331 328 326 327 327 328 331 331 333 332 335 340 341 344 346 347 348 348 350 342 339 342 343 352 354 356 355 356 355 357
332 331 331 330 327 329 333 334 338 338 333 329 325 326 319 315 315 317 325 328 328 329 330 330 331 330 329 329 331 333 336 340 337 337 337 344 350 351 356 355 354 356 358
325 326 325 326 325 327 331 324 323 324 319 316 314 313 312 312 315 317 319 324 324 325 325 326 326 324 320 316 317 322 319 320 334 336 336 343 344 345 352 356 355 353 355
324 326 326 326 325 325 324 321 321 321 317 315 313 311 311 312 310 309 310 311 311 317 313 316 314 312 311 312 311 313 316 316 320 323 333 341 344 344 345 351 354 351 350
325 325 326 326 325 324 324 320 318 318 315 312 311 310 308 307 305 305 307 309 308 309 309 311 311 310 309 311 310 310 311 313 316 320 325 332 338 343 346 349 348 351 348
323 324 325 327 325 322 321 319 316 314 312 310 309 309 307 306 303 304 305 306 306 307 307 309 309 309 308 309 310 311 311 313 314 316 319 327 331 339 343 346 346 347 347
323 323 324 323 319 318 318 317 313 312 309 308 307 307 307 305 303 303 304 305 305 305 305 306 307 307 307 308 309 310 311 312 313 315 315 318 327 331 339 343 344 345 347
321 321 319 319 318 314 314 314 312 312 310 307 307 307 307 305 304 303 303 302 304 304 305 306 307 307 306 308 307 308 310 311 311 311 313 315 318 325 332 338 340 343 345
319 318 317 318 316 312 311 312 311 310 308 307 306 306 307 306 305 302 301 302 303 304 304 305 306 305 304 305 305 306 308 309 309 309 311 313 316 317 323 333 338 339 343
319 317 315 314 313 310 310 310 309 308 307 305 305 305 306 306 306 302 302 302 304 304 305 305 305 303 303 303 305 306 305 306 307 309 308 310 312 317 318 328 334 339 340
319 317 314 313 311 309 308 308 307 307 306 305 305 305 306 305 306 302 302 303 304 303 303 304 302 303 302 301 304 304 304 305 304 305 307 311 315 315 318 321 327 332 339
319 316 312 310 309 310 307 306 306 304 303 303 304 305 305 305 305 301 301 302 303 302 302 302 302 301 300 302 298 302 301 303 303 307 309 313 312 312 320 320 326 328 330
318 315 313 310 308 309 309 307 307 305 304 304 304 304 305 305 305 304 302 302 303 302 302 301 300 299 299 301 297 297 296 298 305 307 309 310 309 312 319 322 325 325 326
317 315 313 309 308 308 306 306 305 303 302 300 301 302 304 306 306 304 304 304 304 302 301 301 301 300 298 300 301 301 298 296 299 303 308 308 309 311 319 319 320 324 326
317 316 314 309 307 307 306 303 302 300 298 300 300 302 304 304 305 306 306 305 304 303 302 302 305 301 299 298 299 305 305 304 299 297 303 307 308 311 315 316 318 321 323
316 315 312 309 307 305 305 303 301 301 301 302 303 303 303 304 305 307 307 306 304 303 303 303 303 301 300 299 299 298 300 304 304 301 298 302 306 308 315 314 315 319 322
314 314 310 308 306 306 305 304 303 302 301 301 302 302 303 303 304 306 306 305 305 304 303 303 302 303 301 303 305 302 299 302 302 302 300 301 302 307 312 313 313 316 318
Wind_Speed
3 3 10 11 14 15 15 14 13 13 12 13 13 13 13 12 11 10 10 10 11 10 10 8 6 5 2 1 1 2 2 9 10 9 9 7 7 6 8 9 10 9 11
4 4 10 12 15 17 17 17 15 12 11 10 11 11 10 10 10 9 8 8 7 7 6 7 6 5 4 3 2 1 2 3 7 8 7 7 5 7 8 11 11 9 11
7 4 9 14 15 17 17 17 16 15 15 15 13 10 9 8 9 8 8 8 8 6 5 4 6 6 4 2 3 1 3 6 6 7 9 5 5 9 10 11 11 15 14
9 5 8 16 16 17 17 17 16 16 16 16 15 15 15 13 11 10 8 7 6 5 3 3 3 5 7 4 2 3 4 6 8 10 5 5 7 10 11 10 11 14 13
6 6 11 17 17 18 18 18 17 17 17 17 15 13 12 12 11 10 10 10 9 8 7 5 4 4 7 10 7 10 9 7 8 8 6 6 5 8 14 13 14 16 16
6 6 14 17 17 17 19 19 18 17 18 18 18 16 14 12 10 10 9 8 7 6 6 7 7 8 9 10 9 13 9 6 9 5 4 6 6 10 17 17 15 15 14
7 6 9 16 18 18 18 18 17 18 20 21 22 24 13 12 12 9 9 10 10 9 7 7 9 9 10 13 11 11 7 8 8 5 4 5 6 12 19 16 16 16 16
11 6 7 15 16 16 16 16 16 16 18 20 21 23 23 22 22 13 8 12 12 10 8 7 8 10 11 11 13 11 10 11 9 7 6 7 9 13 17 20 18 15 17
8 7 5 5 12 16 14 15 15 17 18 19 20 21 20 21 21 21 22 19 20 21 10 10 9 9 10 11 12 15 14 14 7 5 8 5 12 12 17 23 17 20 21
8 7 6 5 4 6 6 14 15 17 18 18 19 20 20 19 20 20 19 19 20 20 20 22 17 20 9 11 13 14 15 17 6 4 4 4 11 12 14 22 21 26 25
7 6 5 4 3 4 5 8 12 18 18 18 15 18 13 7 9 12 18 20 21 21 20 22 22 22 21 19 20 21 19 4 5 4 4 11 11 14 17 16 24 24 21
8 6 5 6 6 4 6 4 6 10 7 6 7 7 5 7 10 13 15 21 20 22 20 21 21 20 15 7 7 13 6 8 6 6 6 17 17 18 15 17 20 19 17
8 6 7 7 7 7 4 3 3 5 5 6 8 6 7 7 6 6 5 6 7 15 7 10 10 7 9 6 6 5 6 6 5 6 11 19 17 18 20 15 18 16 12
11 8 7 7 7 6 3 4 4 6 5 5 5 6 6 3 4 5 5 5 6 5 7 7 5 7 7 7 6 7 7 5 4 4 7 19 21 20 21 17 17 23 20
9 7 7 7 6 5 6 4 5 7 6 4 5 6 4 5 5 4 5 4 4 5 4 6 6 7 7 8 8 8 8 8 8 5 3 18 19 20 20 22 18 22 25
8 7 7 7 6 7 4 5 5 7 5 5 4 4 6 4 4 4 4 4 5 4 4 4 4 5 5 7 9 10 10 8 8 9 6 7 16 17 18 18 18 20 24
8 7 9 8 6 7 6 6 5 7 6 4 4 6 6 6 5 5 4 4 4 5 6 5 5 5 5 6 8 9 9 10 8 9 9 7 8 13 17 18 17 15 20
11 10 9 7 7 7 7 5 6 5 5 4 4 4 5 5 5 4 4 4 4 5 4 4 4 4 4 5 6 8 9 10 11 10 8 8 7 5 10 16 18 16 17
11 10 9 8 7 6 7 6 6 6 5 4 3 4 4 4 5 4 4 4 5 4 4 4 5 3 5 6 8 10 9 8 9 9 10 9 10 8 6 12 17 17 19
10 9 8 6 6 5 5 5 4 5 4 4 4 3 2 2 3 3 4 5 4 4 5 5 5 3 3 5 8 10 9 7 4 5 6 7 5 11 8 7 6 6 19
11 8 7 6 4 4 4 4 4 4 2 2 3 0 3 3 2 3 3 4 4 4 4 5 4 5 4 3 4 8 6 6 2 9 6 7 10 11 10 5 5 4 5
12 8 6 6 5 4 3 2 3 3 0 2 1 2 2 4 4 3 3 4 4 3 5 5 4 4 3 4 3 3 6 6 4 5 6 9 12 9 9 10 5 3 3
12 10 6 6 6 5 6 4 3 3 2 2 2 3 4 5 5 5 5 4 5 3 3 4 3 4 3 4 3 2 4 3 8 3 6 8 13 10 7 7 8 7 4
10 9 7 6 6 6 7 5 5 2 2 1 2 2 4 5 6 5 5 4 4 3 5 4 4 3 1 4 3 2 3 3 3 6 5 5 9 7 9 6 5 5 4
11 9 7 7 6 6 7 6 4 3 1 1 2 4 4 3 4 3 4 4 4 4 5 5 6 5 2 2 2 3 2 3 4 3 6 9 7 7 5 5 8 4 4
10 9 7 8 6 6 6 4 6 4 1 2 2 3 3 3 3 3 5 4 4 4 4 4 5 5 4 3 2 2 2 2 4 3 3 7 7 5 5 6 7 6 5
Wind_Direction
359 28 80 73 71 72 76 78 75 72 72 71 73 75 78 82 86 90 98 107 116 121 124 128 138 142 110 311 347 5 50 164 183 200 231 231 169 147 141 149 148 146 151
125 76 83 77 75 75 73 72 69 66 67 69 75 78 75 87 95 87 84 95 105 112 114 116 119 107 91 69 40 86 284 226 221 217 218 230 196 171 165 176 166 158 152
96 58 83 80 79 76 74 69 66 61 56 54 57 59 72 81 78 87 90 87 89 83 72 97 121 118 103 86 60 55 221 219 219 235 223 202 231 196 194 193 202 168 163
110 109 94 90 85 81 77 75 73 67 61 58 57 56 57 61 62 66 67 66 64 84 120 119 161 188 190 202 273 289 215 225 217 227 235 209 217 206 204 200 178 170 171
104 105 100 96 92 87 81 76 72 68 63 57 52 50 51 55 61 64 58 52 47 32 12 352 314 242 235 225 212 257 224 219 233 233 222 217 205 216 197 199 185 178 175
113 103 104 101 96 89 83 77 71 65 59 51 43 35 43 45 44 41 41 39 30 18 0 353 343 327 293 269 243 245 238 223 246 242 252 228 229 225 200 198 194 188 181
123 118 110 108 102 96 90 82 72 63 56 49 42 37 31 30 25 38 51 44 28 16 4 348 319 312 309 302 294 282 268 244 239 216 224 250 245 239 212 188 196 197 186
127 130 117 117 112 109 104 96 86 75 65 52 42 37 33 27 23 18 16 16 4 355 351 346 337 322 307 293 294 292 276 260 249 237 201 241 230 240 216 187 194 204 202
123 120 119 127 122 117 105 97 85 74 60 49 43 39 35 31 28 21 18 14 11 7 346 342 325 317 301 291 291 284 284 278 262 233 234 225 238 242 212 201 215 201 199
133 134 139 109 101 102 110 102 90 79 69 59 50 43 40 33 23 18 13 7 6 7 8 11 357 351 293 300 305 295 288 276 279 268 255 248 236 241 250 219 214 207 193
124 110 113 123 77 80 110 73 84 85 78 71 56 51 43 29 15 17 7 9 6 13 19 19 24 27 26 15 9 6 2 318 279 261 262 264 259 252 255 241 208 203 190
116 122 114 96 114 124 77 92 85 86 76 69 64 51 49 36 20 13 7 10 12 16 17 22 18 20 19 6 357 360 352 347 326 280 268 271 268 264 264 248 225 207 194
143 119 100 96 86 84 95 81 69 94 82 65 55 48 46 36 14 5 4 4 5 11 14 18 14 16 9 1 352 340 334 339 329 327 315 292 275 267 262 262 232 222 181
118 110 102 98 90 80 82 79 80 95 83 74 55 61 57 43 20 6 4 7 7 0 5 7 3 356 357 352 342 333 330 320 306 292 306 314 303 283 272 258 240 226 203
111 105 88 92 91 77 68 80 74 88 83 75 64 61 60 44 18 2 1 5 359 356 358 351 349 348 347 345 338 330 323 318 307 296 288 305 311 294 278 267 245 238 226
110 100 84 74 72 63 68 95 98 101 97 79 68 73 64 64 31 19 7 359 354 346 337 336 335 333 326 330 331 326 314 304 299 300 289 287 297 301 275 263 254 249 243
103 106 93 72 52 54 68 89 91 103 93 81 70 58 56 46 30 18 13 355 341 328 333 339 333 337 335 324 317 317 306 297 296 293 291 283 285 286 290 271 256 246 241
106 92 77 67 54 49 72 87 90 101 98 90 77 67 58 40 39 19 6 350 329 326 322 335 326 327 320 316 311 299 298 297 297 295 289 291 292 282 279 279 265 242 240
119 112 92 69 69 75 77 84 92 102 96 100 91 70 43 23 26 24 2 334 340 337 337 337 328 332 325 320 313 308 303 296 301 300 291 283 285 294 259 254 263 247 239
94 90 90 86 80 84 92 88 76 81 70 66 67 70 54 7 24 12 352 345 346 345 347 341 325 321 289 296 311 307 303 289 280 296 302 303 306 321 296 246 236 233 235
105 90 77 82 69 76 62 89 88 100 106 60 67 38 37 18 10 7 348 347 344 347 324 324 306 320 316 319 318 320 303 322 243 338 339 343 340 335 321 276 247 231 239
120 117 100 96 73 80 78 71 110 144 177 118 284 318 350 351 341 336 342 333 348 356 345 331 334 318 293 327 323 296 340 332 328 323 349 343 349 332 354 6 311 257 268
126 130 122 115 94 85 83 73 69 58 49 37 340 322 317 319 316 339 340 346 344 343 327 312 321 338 309 306 334 281 328 326 326 328 339 346 347 333 355 3 1 29 10
141 131 142 129 110 90 92 86 98 133 90 250 253 283 302 319 326 314 326 344 334 324 330 315 319 297 280 306 329 263 231 264 312 319 329 317 339 328 345 1 350 7 15
141 145 143 138 115 121 102 114 110 96 119 316 360 356 339 339 357 349 337 324 344 338 325 329 330 333 306 276 270 313 311 283 253 273 312 327 328 343 341 356 349 329 11
143 147 149 135 150 127 117 129 124 116 44 49 4 351 333 315 344 358 344 347 334 336 339 328 321 317 325 304 282 300 264 304 303 286 286 322 316 307 318 9 344 355 29